Regional Weather Roundup
Issued by NWS

Home | Current Version | Previous Version | Text Only | Print | Product List | Glossary On
Versions: 1 2 3 4 5 6 7 8 9 10 11 12 13 14 15 16 17 18 19 20 21 22 23 24 25 26 27 28 29 30 31 32 33 34 35 36 37 38 39 40 41 42 43 44 45 46 47 48 49 50
000
ASUS43 KFSD 210610
RWRSD

WEATHER ROUNDUP FOR SOUTH DAKOTA
NATIONAL WEATHER SERVICE SIOUX FALLS SD
100 AM CDT TUE APR 21 2015

NOTE: "FAIR" INDICATES FEW OR NO CLOUDS BELOW 12,000 FEET WITH NO
SIGNIFICANT WEATHER AND/OR OBSTRUCTIONS TO VISIBILITY.


SDZ001>005-009-010-012>017-210700-
NORTHWEST AND NORTH CENTRAL SOUTH DAKOTA

CITY           SKY/WX    TMP DP  RH WIND       PRES   REMARKS
BUFFALO          N/A     28  19  69 W5        29.76F WCI  23
FAITH            N/A     32  18  56 W9        29.83F WCI  24
MOBRIDGE       CLEAR     33  18  53 NW7       29.76S WCI  27
$$

SDZ012>016-024>037-041>051-057-063-072>074-210700-
SOUTHWEST AND SOUTH CENTRAL SOUTH DAKOTA

CITY           SKY/WX    TMP DP  RH WIND       PRES   REMARKS
RAPID CTY ARPT CLEAR     33  21  61 NW7       29.89  WCI  27
PIERRE         CLEAR     35  22  58 NW12      29.81S WCI  27
CUSTER         CLEAR     27  17  66 NW5       29.89S WCI  22
ELLSWORTH AFB  CLEAR     30  22  72 W6        29.88F WCI  24
PHILIP         CLEAR     31  32 100 W6        29.87S WCI  25
PINE RIDGE     CLEAR     27  22  81 CALM      29.92R
SPEARFISH      FAIR      32  21  64 S13       29.89F WCI  22
WINNER         FAIR      39  18  42 W13       29.84R
$$

SDZ004>011-016>023-039-040-210700-
NORTHEAST SOUTH DAKOTA

CITY           SKY/WX    TMP DP  RH WIND       PRES   REMARKS
ABERDEEN       CLEAR     33  18  53 W9        29.72F WCI  25
WATERTOWN      FAIR      35  27  72 W10       29.68S WCI  27
BROOKINGS      FAIR      30  25  80 W9        29.71S WCI  22
SISSETON         N/A     35  28  75 NW16      29.66S WCI  25
$$

SDZ017-020-022-023-036>040-048>070-210700-
SOUTHEAST SOUTH DAKOTA

CITY           SKY/WX    TMP DP  RH WIND       PRES   REMARKS
SIOUX FALLS    FAIR      33  20  58 W6        29.74S WCI  28
HURON          CLEAR     26  15  63 W8        29.76S WCI  18
CHAMBERLAIN    CLEAR     33  15  46 W6        29.81R WCI  28
MITCHELL       CLEAR     34  11  38 W7        29.79R WCI  28
YANKTON        FAIR      37  10  32 W14       29.78R
$$

ABBREVIATIONS USED IN REMARKS
   TC - TEMPERATURE IN CELSIUS
  WCI - WIND CHILL INDEX
   HX - HEAT INDEX
  VSB - VISIBILITY



USA.gov is the U.S. government's official web portal to all federal, state and local government web resources and services.